Ahoskie, NC

6:48 AM EDT on June 25, 2017 (GMT -0400)
Tri County

Weather History for KASJ - December, 2012

Change the Weather History Date:

Sunday, December 2, 2012

  Actual Average (KEMV) Record (KEMV)
Temperature  
Mean Temperature 48 °F -  
Max Temperature 65 °F 58 °F 78 °F (1991)
Min Temperature 32 °F 33 °F 18 °F (1989)
Degree Days  
Heating Degree Days 16    
Moisture  
Dew Point 42 °F    
Average Humidity 80    
Maximum Humidity 95    
Minimum Humidity 56    
Precipitation  
Precipitation 0.00 in - - ()
Sea Level Pressure  
Sea Level Pressure 30.34 in    
Wind  
Wind Speed 1 mph (South)    
Max Wind Speed 8 mph    
Max Gust Speed -    
Visibility 8 miles    
Events Fog    
Averages and records for this station are not official NWS values.
T = Trace of Precipitation, MM = Missing Value Source: NWS Daily Summary

Daily Weather History Graph

Daily Weather History Graph

Search for Another Location

Airport or City:

Trip Planner

Search our weather history database for the weather conditions in past years. The results will help you decide how hot, cold, wet, or windy it might be!

Date:

Astronomy

Dec. 02, 2012 Rise Set
Actual Time 7:02 AM EST 4:53 PM EST
Civil Twilight 6:34 AM EST 5:21 PM EST
Nautical Twilight 6:02 AM EST 5:53 PM EST
Astronomical Twilight 5:31 AM EST 6:24 PM EST
Moon 8:36 PM EST (12/2) 9:53 AM EST (12/2)
Length of Visible Light 10h 47m
Length of Day
9h 50m
Waning Gibbous, 86% of the Moon is Illuminated
Dec 2
Waning Gibbous
Dec 6
Last Quarter
Dec 13
New
Dec 20
First Quarter
Dec 28
Full

Hourly Weather History & Observations

Time (EST) Temp. Dew Point Humidity Pressure Visibility Wind Dir Wind Speed Gust Speed Precip Events Conditions
12:15 AM 36.7 °F 34.2 °F 91% 30.40 in 5.0 mi Calm Calm - N/A   Clear
12:35 AM 36.5 °F 34.0 °F 91% 30.40 in 5.0 mi Calm Calm - N/A   Clear
12:55 AM 35.4 °F 33.1 °F 91% 30.40 in 7.0 mi Calm Calm - N/A   Clear
1:15 AM 35.2 °F 33.1 °F 92% 30.39 in 1.0 mi Calm Calm - N/A   Mist
1:35 AM 35.6 °F 33.3 °F 91% 30.40 in 7.0 mi Calm Calm - N/A   Clear
1:55 AM 35.1 °F 32.9 °F 92% 30.40 in 7.0 mi Calm Calm - N/A   Clear
2:15 AM 35.1 °F 32.9 °F 92% 30.40 in 5.0 mi Calm Calm - N/A   Clear
2:35 AM 34.9 °F 32.7 °F 92% 30.40 in 5.0 mi Calm Calm - N/A   Clear
2:55 AM 35.1 °F 32.9 °F 92% 30.40 in 0.5 mi Calm Calm - N/A Fog Fog
3:15 AM 35.1 °F 32.9 °F 92% 30.39 in 4.0 mi Calm Calm - N/A   Clear
3:35 AM 34.9 °F 32.7 °F 92% 30.39 in 3.0 mi Calm Calm - N/A   Clear
3:55 AM 33.1 °F 31.6 °F 94% 30.38 in 4.0 mi Calm Calm - N/A   Clear
4:15 AM 35.1 °F 32.9 °F 92% 30.38 in 3.0 mi Calm Calm - N/A   Clear
4:35 AM 33.1 °F 31.6 °F 94% 30.38 in 3.0 mi Calm Calm - N/A   Clear
4:55 AM 32.5 °F 30.9 °F 94% 30.38 in 7.0 mi Calm Calm - N/A   Clear
5:15 AM 33.1 °F 31.5 °F 94% 30.38 in 5.0 mi Calm Calm - N/A   Clear
5:55 AM 32.9 °F 31.6 °F 95% 30.39 in 5.0 mi Calm Calm - N/A   Clear
6:15 AM 32.5 °F 30.9 °F 94% 30.39 in 7.0 mi Calm Calm - N/A   Clear
6:35 AM 32.5 °F 30.9 °F 94% 30.39 in 7.0 mi Calm Calm - N/A   Clear
6:55 AM 32.5 °F 30.7 °F 93% 30.40 in 7.0 mi Calm Calm - N/A   Clear
7:15 AM 32.5 °F 30.9 °F 94% 30.40 in 5.0 mi Calm Calm - N/A   Clear
7:35 AM 35.1 °F 32.9 °F 92% 30.40 in 7.0 mi Calm Calm - N/A   Clear
7:55 AM 35.1 °F 32.9 °F 92% 30.40 in 10.0 mi Calm Calm - N/A   Clear
8:15 AM 36.5 °F 34.2 °F 91% 30.42 in 10.0 mi Calm Calm - N/A   Clear
8:35 AM 39.0 °F 36.7 °F 91% 30.41 in 7.0 mi Calm Calm - N/A   Clear
8:55 AM 43.3 °F 40.8 °F 91% 30.42 in 7.0 mi Calm Calm - N/A   Clear
9:15 AM 45.1 °F 41.7 °F 88% 30.42 in 10.0 mi Calm Calm - N/A   Clear
9:35 AM 50.0 °F 45.7 °F 85% 30.42 in 10.0 mi Calm Calm - N/A   Clear
9:55 AM 50.5 °F 44.6 °F 80% 30.41 in 10.0 mi South 3.5 mph - N/A   Clear
10:15 AM 52.7 °F 45.3 °F 76% 30.41 in 10.0 mi SSE 5.8 mph - N/A   Clear
10:35 AM 55.0 °F 45.9 °F 71% 30.39 in 10.0 mi South 4.6 mph - N/A   Clear
10:55 AM 57.0 °F 46.8 °F 69% 30.39 in 10.0 mi SSW 5.8 mph - N/A   Clear
11:15 AM 57.6 °F 46.9 °F 68% 30.37 in 10.0 mi South 6.9 mph - N/A   Clear
11:35 AM 58.1 °F 47.3 °F 67% 30.35 in 10.0 mi SSE 8.1 mph - N/A   Clear
11:55 AM 59.0 °F 47.3 °F 65% 30.35 in 10.0 mi South 4.6 mph - N/A   Clear
12:15 PM 60.1 °F 48.0 °F 64% 30.33 in 10.0 mi South 3.5 mph - N/A   Clear
12:55 PM 61.5 °F 48.0 °F 61% 30.32 in 10.0 mi South 3.5 mph - N/A   Clear
1:15 PM 62.4 °F 48.7 °F 61% 30.31 in 10.0 mi South 3.5 mph - N/A   Clear
1:35 PM 64.6 °F 50.5 °F 60% 30.30 in 10.0 mi Calm Calm - N/A   Clear
1:55 PM 65.3 °F 50.4 °F 58% 30.29 in 10.0 mi SSW 3.5 mph - N/A   Clear
2:15 PM 65.3 °F 50.0 °F 58% 30.29 in 10.0 mi Calm Calm - N/A   Clear
2:35 PM 65.3 °F 49.5 °F 57% 30.28 in 10.0 mi South 3.5 mph - N/A   Clear
2:55 PM 65.3 °F 49.3 °F 56% 30.27 in 10.0 mi South 6.9 mph - N/A   Clear
3:15 PM 65.3 °F 50.2 °F 58% 30.27 in 10.0 mi SSW 4.6 mph - N/A   Clear
3:35 PM 65.3 °F 50.5 °F 59% 30.28 in 10.0 mi South 4.6 mph - N/A   Clear
3:55 PM 63.0 °F 49.3 °F 61% 30.27 in 10.0 mi South 4.6 mph - N/A   Clear
4:15 PM 62.4 °F 49.8 °F 63% 30.27 in 10.0 mi South 6.9 mph - N/A   Clear
4:35 PM 60.1 °F 48.2 °F 65% 30.27 in 10.0 mi South 3.5 mph - N/A   Clear
4:55 PM 58.1 °F 47.5 °F 68% 30.27 in 10.0 mi South 4.6 mph - N/A   Clear
5:15 PM 56.3 °F 47.5 °F 72% 30.27 in 10.0 mi South 4.6 mph - N/A   Clear
5:35 PM 55.6 °F 47.3 °F 74% 30.27 in 10.0 mi South 4.6 mph - N/A   Clear
5:55 PM 55.0 °F 47.7 °F 76% 30.26 in 10.0 mi South 3.5 mph - N/A   Clear
6:15 PM 55.0 °F 47.8 °F 77% 30.26 in 10.0 mi South 4.6 mph - N/A   Clear
6:35 PM 55.0 °F 48.4 °F 78% 30.26 in 10.0 mi South 4.6 mph - N/A   Clear
6:55 PM 53.1 °F 46.6 °F 79% 30.27 in 10.0 mi South 3.5 mph - N/A   Clear
7:15 PM 53.8 °F 47.1 °F 78% 30.27 in 10.0 mi South 3.5 mph - N/A   Clear
7:35 PM 53.1 °F 46.8 °F 79% 30.27 in 10.0 mi South 4.6 mph - N/A   Clear
8:15 PM 52.3 °F 46.9 °F 82% 30.27 in 10.0 mi South 4.6 mph - N/A   Clear
8:35 PM 51.1 °F 46.4 °F 84% 30.27 in 10.0 mi South 4.6 mph - N/A   Clear
8:55 PM 50.7 °F 46.2 °F 85% 30.27 in 10.0 mi Calm Calm - N/A   Clear
9:15 PM 52.7 °F 47.3 °F 82% 30.27 in 10.0 mi South 3.5 mph - N/A   Clear
9:35 PM 52.7 °F 47.5 °F 82% 30.27 in 10.0 mi South 3.5 mph - N/A   Clear
9:55 PM 52.7 °F 47.7 °F 83% 30.27 in 10.0 mi South 3.5 mph - N/A   Clear
10:15 PM 51.8 °F 47.1 °F 84% 30.27 in 10.0 mi South 4.6 mph - N/A   Clear
10:35 PM 50.5 °F 45.9 °F 84% 30.26 in 10.0 mi South 4.6 mph - N/A   Clear
10:55 PM 52.7 °F 47.3 °F 82% 30.26 in 10.0 mi Calm Calm - N/A   Clear
11:15 PM 52.7 °F 47.5 °F 82% 30.26 in 10.0 mi Calm Calm - N/A   Clear
11:55 PM 52.2 °F 47.7 °F 85% 30.26 in 10.0 mi Calm Calm - N/A   Scattered Clouds